Regional Weather Roundup
Issued by NWS

Home | Current Version | Previous Version | Text Only | Print | Product List | Glossary Off
Versions: 1 2 3 4 5 6 7 8 9 10 11 12 13 14 15 16 17 18 19 20 21 22 23 24 25 26 27 28 29 30 31 32 33 34 35 36 37 38 39 40 41 42 43 44 45 46 47 48 49 50

000
ASUS43 KDMX 161706
RWRIA

WEATHER ROUNDUP FOR IOWA
NATIONAL WEATHER SERVICE DES MOINES IA
1100 AM CST SAT DEC 16 2017

NOTE: "FAIR" INDICATES FEW OR NO CLOUDS BELOW 12,000 FEET WITH NO
SIGNIFICANT WEATHER AND/OR OBSTRUCTIONS TO VISIBILITY.

* - THESE STATIONS ARE NOT NWS STATIONS...THUS NOT UNDER NWS
QUALITY CONTROL.  THEY ALSO DO NOT REPORT WEATHER SUCH
AS PRECIPITATION OR FOG.

IAZ001>003-012>014-020>022-031>034-043>046-161800-
   NORTHWEST IOWA

CITY           SKY/WX    TMP DP  RH WIND       PRES   REMARKS
CARROLL *      SUNNY     46  27  46 NW7       29.81S
CHEROKEE *     CLOUDY    44  29  57 N9        29.84S
DENISON *      SUNNY     45  27  49 N9        29.83S
LE MARS *      MOSUNNY   43  28  56 N8        29.85S
ORANGE CITY *  CLOUDY    41  30  65 NW5       29.86R
SHELDON *      PTSUNNY   39  30  70 NW8       29.83R WCI  34
SIOUX CITY     PTSUNNY   39  28  64 NW12      29.85R WCI  32
SPENCER        MOSUNNY   40  29  64 N6        29.85R
STORM LAKE *   SUNNY     43  27  52 N12       29.82S
$$

IAZ055>058-069>071-079>083-090>094-161800-
   SOUTHWEST IOWA

CITY           SKY/WX    TMP DP  RH WIND       PRES   REMARKS
ATLANTIC *     CLOUDY    43  25  49 VRB3      29.84R
AUDUBON *      SUNNY     45  25  45 CALM      29.84R
CLARINDA *     SUNNY     46  27  46 SW9         N/A
COUNCIL BLFS * CLOUDY    43  25  49 CALM      29.84R
CRESTON *      SUNNY     46  27  46 SW14      29.84S
HARLAN  *      SUNNY     41  27  56 CALM      29.87R
LAMONI         SUNNY     45  26  47 SW13      29.85R
RED OAK *      SUNNY     46  25  42 S9        29.84R
SHENANDOAH *   SUNNY     45  27  49 SW9       29.85R
$$

IAZ047>049-059>061-072>074-084-161800-
   CENTRAL IOWA

CITY           SKY/WX    TMP DP  RH WIND       PRES   REMARKS
AMES           SUNNY     46  26  45 VRB5      29.82R
ANKENY *       SUNNY     45  25  45 VRB6      29.84R
BOONE *        SUNNY     45  25  45 W6        29.81R
CHARITON *     SUNNY     46  27  46 SW12G17   29.84R
DES MOINES     MOSUNNY   45  25  45 W7        29.84R
GRINNELL*      SUNNY     43  27  53 SW9       29.84R
KNOXVILLE *    SUNNY     46  25  42 SW10      29.82S
MARSHALLTOWN   SUNNY     45  26  47 NW7       29.81R
NEWTON *       SUNNY     43  27  52 W7        29.83S
PELLA *        SUNNY     46  26  45 W9        29.85R
PERRY *          N/A     46  23  39 W6        29.83R
$$

IAZ004>006-015-016-023>025-035-036-161800-
   NORTH CENTRAL IOWA

CITY           SKY/WX    TMP DP  RH WIND       PRES   REMARKS
ALGONA *       CLOUDY    43  30  61 N8        29.83R
CLARION *      SUNNY     39  28  65 NW7       29.82R WCI  34
ESTHERVILLE    CLOUDY    36  29  75 NW9       29.82R WCI  29
FORT DODGE *   SUNNY     44  27  51 N8        29.82R
MASON CITY     CLOUDY    41  27  57 NW5       29.83R
FOREST CITY *    N/A     41  30  65 CALM      29.81R
WEBSTER CITY * SUNNY     45  27  49 NW12      29.80R
IOWA FALLS *     N/A     44  28  54 NW8       29.81S
$$

IAZ007>011-017>019-026>030-037>042-050>054-066-161800-
   NORTHEAST IOWA

CITY           SKY/WX    TMP DP  RH WIND       PRES   REMARKS
CEDAR RAPIDS   SUNNY     44  27  51 W8        29.83R
CHARLES CITY * CLOUDY    37  27  65 NW3       29.82R
CLINTON *      SUNNY     45  27  49 W12       29.87R
DECORAH *      SUNNY     36  25  64 CALM      29.82R
DUBUQUE        SUNNY     39  26  59 SW5       29.84R
MONTICELLO *   SUNNY     43  27  52 VRB5      29.83S
OELWEIN *      CLOUDY    41  27  56 NW6       29.82R
WATERLOO       SUNNY     42  24  49 W6        29.82R
$$

IAZ064-065-067-068-078-161800-
   EAST CENTRAL IOWA

CITY           SKY/WX    TMP DP  RH WIND       PRES   REMARKS
DAVENPORT      SUNNY     45  26  47 SW12      29.88R
IOWA CITY      SUNNY     45  27  49 SW10      29.86S
MT. PLEASANT * SUNNY     46  26  45 SW15      29.87S
MUSCATINE *    SUNNY     46  27  46 SW9       29.87S
QUAD CITIES    SUNNY     46  27  47 SW12      29.86S
$$

IAZ062-063-075>077-085>089-095>099-161800-
   SOUTHEAST IOWA

CITY           SKY/WX    TMP DP  RH WIND       PRES   REMARKS
BURLINGTON     SUNNY     45  28  51 SW10      29.88R
FAIRFIELD *    SUNNY     46  25  42 SW13      29.85S
FORT MADISON * SUNNY     46  28  49 W6        29.89S
KEOKUK *       SUNNY     46  27  46 SW15      29.88S
OSKALOOSA *      N/A     46  27  47 SW13      29.85S
OTTUMWA        SUNNY     47  25  42 SW14      29.85R
WASHINGTON *   SUNNY     46  27  46 W13       29.87R
$$

ABBREVIATIONS USED IN REMARKS
   TC - TEMPERATURES IN CELSIUS
  WCI - WIND CHILL INDEX
   HX - HEAT INDEX
  VSB - VISIBILITY
$$




USA.gov is the U.S. government's official web portal to all federal, state and local government web resources and services.